Hundvaag 1 weather for Jul 1988
Month no. 13
Obs.
Da.
Temp. Dew Point Precip. Wind
Speed
Wind gusts Cloud cover Press. Humidity Wind dir. Sunny OPT
01.07.1988 17,9   0,0             1  
02.07.1988 15,7   3,8             1  
03.07.1988 17,8   1,0             1  
04.07.1988 13,3   5,1             1  
05.07.1988 14,1   12,3             1  
06.07.1988 15,2   47,5             1  
07.07.1988 13,2   2,0             1  
08.07.1988 13,3   5,4                
09.07.1988 13,0   102,3             1  
10.07.1988 15,4   7,8                
11.07.1988 15,4   15,6             1  
12.07.1988 15,5   1,1             1  
13.07.1988 14,4   0,0             1  
14.07.1988 16,5   0,1             1  
15.07.1988 14,9   5,4             1  
16.07.1988 16,5   7,7             1  
17.07.1988 14,5   8,0                
18.07.1988 15,7   15,3             1  
19.07.1988 15,0   7,6             1  
20.07.1988 14,9   0,5             1  
21.07.1988 14,3   3,0             1  
22.07.1988 15,3   0,0             1  
23.07.1988 16,4   0,0                
24.07.1988 16,0   24,0             1  
25.07.1988 17,4   1,3             1  
26.07.1988 15,6   5,8             1  
27.07.1988 14,6   2,1             1  
28.07.1988 15,3   2,1             1  
29.07.1988 13,2   9,8             1  
30.07.1988 12,8   21,1                
31.07.1988 11,6   9,5             1  
Avrg/Sum 15,0   327,2             26